| time (UTC) | temp C | wind direction | speed KPH | gust KPH | rain 1hr cm | rain 24hr cm | rain mn cm | humidity % | barometer mb |
| 20260509123952 | 10 | 256 | 14.5 | 33.8 | 0.00 | 0.00 | 0.00 | 85 | 990.8 |
| 20260509123052 | 10 | 234 | 14.5 | 30.6 | 0.00 | 0.00 | 0.00 | 84 | 990.7 |
| 20260509122152 | 10 | 238 | 22.5 | 40.2 | 0.00 | 0.00 | 0.00 | 84 | 990.8 |
| 20260509121252 | 10 | 225 | 14.5 | 40.2 | 0.00 | 0.00 | 0.00 | 84 | 990.6 |
| 20260509120352 | 10 | 242 | 12.9 | 30.6 | 0.00 | 0.00 | 0.00 | 84 | 990.6 |
| 20260509114552 | 10 | 264 | 12.9 | 24.1 | 0.00 | 0.00 | 0.30 | 84 | 991.1 |
| 20260509113652 | 11 | 225 | 6.4 | 24.1 | 0.00 | 0.00 | 0.30 | 84 | 991.3 |
| 20260509111852 | 11 | 236 | 16.1 | 29.0 | 0.00 | 0.00 | 0.30 | 83 | 991.4 |
| 20260509110952 | 11 | 243 | 17.7 | 29.0 | 0.00 | 0.00 | 0.30 | 84 | 990.9 |
| 20260509110052 | 11 | 249 | 12.9 | 33.8 | 0.00 | 0.00 | 0.30 | 84 | 991.1 |
| 20260509105152 | 11 | 258 | 9.7 | 33.8 | 0.00 | 0.00 | 0.30 | 84 | 991.3 |
| 20260509104252 | 11 | 250 | 20.9 | 33.8 | 0.00 | 0.00 | 0.30 | 84 | 990.9 |
| 20260509103352 | 11 | 218 | 14.5 | 27.4 | 0.00 | 0.00 | 0.30 | 85 | 991.1 |
| 20260509102452 | 11 | 219 | 11.3 | 24.1 | 0.00 | 0.00 | 0.30 | 86 | 990.9 |
| 20260509101552 | 11 | 247 | 17.7 | 24.1 | 0.00 | 0.00 | 0.30 | 87 | 990.6 |
| 20260509100652 | 11 | 241 | 8.0 | 24.1 | 0.00 | 0.00 | 0.30 | 86 | 990.4 |
| 20260509095752 | 11 | 230 | 11.3 | 27.4 | 0.00 | 0.00 | 0.30 | 86 | 990.3 |
| 20260509094852 | 11 | 253 | 17.7 | 27.4 | 0.00 | 0.00 | 0.30 | 87 | 990.4 |
| 20260509093952 | 11 | 253 | 14.5 | 24.1 | 0.00 | 0.00 | 0.30 | 87 | 990.5 |
| 20260509093052 | 11 | 242 | 11.3 | 24.1 | 0.00 | 0.00 | 0.30 | 87 | 990.4 |
| 20260509092152 | 11 | 286 | 11.3 | 24.1 | 0.00 | 0.00 | 0.30 | 86 | 990.5 |
| 20260509091252 | 11 | 260 | 17.7 | 22.5 | 0.00 | 0.00 | 0.30 | 86 | 990.6 |
| 20260509090352 | 11 | 240 | 12.9 | 25.7 | 0.00 | 0.00 | 0.30 | 86 | 990.5 |
| 20260509084552 | 11 | 232 | 12.9 | 24.1 | 0.00 | 0.00 | 0.30 | 86 | 990.2 |
| 20260509082752 | 11 | 239 | 16.1 | 25.7 | 0.00 | 0.00 | 0.30 | 87 | 990.7 |
| 20260509081851 | 11 | 225 | 16.1 | 30.6 | 0.00 | 0.00 | 0.30 | 87 | 990.8 |
| 20260509080952 | 11 | 260 | 9.7 | 32.2 | 0.00 | 0.00 | 0.30 | 87 | 990.8 |
| 20260509080052 | 11 | 249 | 14.5 | 29.0 | 0.00 | 0.00 | 0.30 | 86 | 990.8 |
| 20260509075152 | 11 | 241 | 12.9 | 27.4 | 0.00 | 0.00 | 0.30 | 86 | 991.0 |
| 20260509073352 | 11 | 254 | 12.9 | 25.7 | 0.00 | 0.00 | 0.30 | 86 | 991.2 |
| 20260509072452 | 11 | 205 | 9.7 | 33.8 | 0.00 | 0.00 | 0.30 | 86 | 991.2 |
| 20260509070651 | 11 | 244 | 11.3 | 25.7 | 0.00 | 0.00 | 0.30 | 85 | 991.0 |
| 20260509064851 | 12 | 194 | 9.7 | 24.1 | 0.00 | 0.03 | 0.30 | 81 | 990.6 |
| 20260509063953 | 12 | 235 | 14.5 | 37.0 | 0.00 | 0.03 | 0.30 | 79 | 990.8 |
| 20260509063051 | 12 | 220 | 6.4 | 27.4 | 0.00 | 0.03 | 0.30 | 76 | 990.8 |
| 20260509062151 | 12 | 244 | 14.5 | 29.0 | 0.00 | 0.03 | 0.30 | 75 | 990.6 |
| 20260509061252 | 12 | 224 | 12.9 | 25.7 | 0.00 | 0.03 | 0.30 | 76 | 990.7 |
| 20260509060351 | 12 | 188 | 14.5 | 20.9 | 0.00 | 0.03 | 0.30 | 81 | 990.5 |
| 20260509055451 | 12 | 204 | 6.4 | 11.3 | 0.00 | 0.03 | 0.30 | 85 | 990.2 |
| 20260509053651 | 12 | 92 | 1.6 | 3.2 | 0.00 | 0.03 | 0.30 | 84 | 990.0 |
| 20260509052752 | 12 | 90 | 0.0 | 3.2 | 0.00 | 0.03 | 0.30 | 86 | 989.8 |
| 20260509050951 | 13 | 90 | 0.0 | 3.2 | 0.00 | 0.03 | 0.30 | 87 | 989.9 |
| 20260509050051 | 13 | 90 | 0.0 | 3.2 | 0.00 | 0.03 | 0.30 | 86 | 989.8 |
| 20260509045152 | 13 | 90 | 0.0 | 6.4 | 0.00 | 0.03 | 0.30 | 87 | 989.4 |
| 20260509044251 | 13 | 80 | 3.2 | 9.7 | 0.00 | 0.03 | 0.30 | 86 | 989.4 |
| 20260509043351 | 13 | 85 | 1.6 | 9.7 | 0.00 | 0.03 | 0.30 | 80 | 989.1 |
| 20260509042451 | 14 | 74 | 3.2 | 8.0 | 0.00 | 0.03 | 0.30 | 75 | 989.2 |
| 20260509041552 | 14 | 72 | 3.2 | 8.0 | 0.00 | 0.03 | 0.30 | 74 | 989.4 |
| 20260509035752 | 15 | 1 | 1.6 | 6.4 | 0.00 | 0.03 | 0.30 | 66 | 989.2 |
| 20260509034851 | 15 | 1 | 1.6 | 6.4 | 0.00 | 0.03 | 0.30 | 64 | 989.3 |
| 20260509033051 | 16 | 336 | 1.6 | 3.2 | 0.00 | 0.03 | 0.30 | 63 | 989.3 |
| 20260509032151 | 16 | 314 | 0.0 | 4.8 | 0.00 | 0.03 | 0.30 | 62 | 989.2 |
| 20260509031251 | 16 | 241 | 1.6 | 3.2 | 0.00 | 0.03 | 0.30 | 59 | 989.3 |
| 20260509030351 | 16 | 225 | 1.6 | 3.2 | 0.00 | 0.03 | 0.30 | 56 | 989.2 |
| 20260509024551 | 16 | 215 | 1.6 | 6.4 | 0.00 | 0.03 | 0.30 | 54 | 989.1 |
| 20260509022751 | 16 | 299 | 3.2 | 4.8 | 0.00 | 0.03 | 0.30 | 54 | 988.9 |
| 20260509020951 | 16 | 1 | 0.0 | 3.2 | 0.00 | 0.03 | 0.30 | 59 | 989.3 |
| 20260509020051 | 16 | 348 | 0.0 | 6.4 | 0.00 | 0.03 | 0.30 | 63 | 989.2 |
| 20260509015151 | 16 | 336 | 1.6 | 8.0 | 0.00 | 0.03 | 0.30 | 57 | 988.8 |
| 20260509014251 | 16 | 209 | 3.2 | 16.1 | 0.00 | 0.03 | 0.30 | 52 | 989.1 |
| 20260509013351 | 16 | 212 | 3.2 | 16.1 | 0.00 | 0.03 | 0.30 | 50 | 989.1 |
| 20260509012451 | 16 | 165 | 0.0 | 17.7 | 0.00 | 0.03 | 0.30 | 53 | 989.2 |
| 20260509011551 | 17 | 244 | 6.4 | 12.9 | 0.00 | 0.03 | 0.30 | 47 | 989.6 |
| 20260509010651 | 17 | 262 | 4.8 | 8.0 | 0.00 | 0.03 | 0.30 | 51 | 989.8 |
| 20260509005751 | 17 | 73 | 3.2 | 11.3 | 0.00 | 0.03 | 0.30 | 61 | 990.0 |
| 20260509004851 | 16 | 46 | 3.2 | 6.4 | 0.00 | 0.03 | 0.30 | 65 | 989.8 |
| 20260509003951 | 14 | 8 | 1.6 | 6.4 | 0.00 | 0.03 | 0.30 | 71 | 990.0 |
| 20260509002151 | 14 | 41 | 1.6 | 8.0 | 0.00 | 0.03 | 0.30 | 65 | 990.4 |
| 20260509001251 | 15 | 88 | 3.2 | 8.0 | 0.00 | 0.03 | 0.30 | 61 | 990.4 |
| 20260509000352 | 15 | 49 | 3.2 | 9.7 | 0.00 | 0.03 | 0.30 | 59 | 990.8 |
| 20260508235451 | 15 | 59 | 3.2 | 6.4 | 0.00 | 0.03 | 0.30 | 61 | 990.8 |
| 20260508234551 | 16 | 85 | 4.8 | 6.4 | 0.00 | 0.03 | 0.30 | 54 | 991.0 |
| 20260508233651 | 16 | 90 | 4.8 | 8.0 | 0.00 | 0.03 | 0.30 | 53 | 990.9 |
| 20260508232751 | 16 | 90 | 6.4 | 8.0 | 0.00 | 0.03 | 0.30 | 53 | 990.9 |
| 20260508230951 | 16 | 41 | 1.6 | 6.4 | 0.00 | 0.03 | 0.30 | 57 | 990.9 |
| 20260508230051 | 16 | 22 | 3.2 | 6.4 | 0.00 | 0.03 | 0.30 | 57 | 991.2 |
| 20260508225151 | 16 | 358 | 1.6 | 6.4 | 0.00 | 0.03 | 0.30 | 59 | 991.3 |
| 20260508224250 | 15 | 355 | 1.6 | 6.4 | 0.00 | 0.03 | 0.30 | 64 | 991.1 |
| 20260508223351 | 13 | 1 | 0.0 | 4.8 | 0.00 | 0.03 | 0.30 | 66 | 990.9 |
| 20260508222451 | 12 | 20 | 1.6 | 6.4 | 0.00 | 0.03 | 0.30 | 67 | 990.9 |
| 20260508221551 | 12 | 89 | 4.8 | 8.0 | 0.00 | 0.03 | 0.30 | 65 | 990.9 |
| 20260508220650 | 12 | 48 | 6.4 | 8.0 | 0.00 | 0.03 | 0.30 | 67 | 991.2 |
| 20260508215751 | 12 | 354 | 0.0 | 6.4 | 0.00 | 0.03 | 0.30 | 68 | 991.0 |
| 20260508214851 | 11 | 331 | 3.2 | 6.4 | 0.00 | 0.03 | 0.30 | 70 | 991.1 |
| 20260508213951 | 11 | 275 | 1.6 | 16.1 | 0.00 | 0.03 | 0.30 | 68 | 991.0 |
| 20260508213051 | 11 | 240 | 6.4 | 16.1 | 0.00 | 0.03 | 0.30 | 70 | 990.9 |
| 20260508212151 | 10 | 266 | 1.6 | 9.7 | 0.00 | 0.03 | 0.30 | 71 | 991.0 |
| 20260508211251 | 10 | 210 | 1.6 | 9.7 | 0.00 | 0.03 | 0.30 | 74 | 990.8 |
| 20260508210350 | 10 | 280 | 3.2 | 9.7 | 0.00 | 0.03 | 0.30 | 74 | 991.1 |
| 20260508205451 | 10 | 280 | 3.2 | 9.7 | 0.00 | 0.03 | 0.30 | 76 | 991.0 |
| 20260508204550 | 10 | 291 | 3.2 | 6.4 | 0.00 | 0.03 | 0.30 | 76 | 991.2 |
| 20260508203650 | 9 | 275 | 0.0 | 17.7 | 0.00 | 0.03 | 0.30 | 76 | 991.0 |
| 20260508202750 | 9 | 301 | 6.4 | 17.7 | 0.00 | 0.03 | 0.30 | 76 | 990.8 |
| 20260508201850 | 9 | 282 | 6.4 | 24.1 | 0.00 | 0.03 | 0.30 | 75 | 990.7 |
| 20260508200950 | 10 | 270 | 11.3 | 32.2 | 0.00 | 0.03 | 0.30 | 73 | 990.5 |
| 20260508200050 | 10 | 275 | 12.9 | 37.0 | 0.00 | 0.03 | 0.30 | 73 | 990.1 |
| 20260508195150 | 10 | 277 | 11.3 | 40.2 | 0.00 | 0.03 | 0.00 | 73 | 990.1 |
| 20260508194250 | 10 | 265 | 19.3 | 48.3 | 0.00 | 0.03 | 0.00 | 77 | 990.0 |
| 20260508193350 | 10 | 278 | 24.1 | 46.7 | 0.00 | 0.03 | 0.00 | 80 | 989.6 |
| 20260508192451 | 10 | 299 | 14.5 | 37.0 | 0.00 | 0.03 | 0.00 | 84 | 990.1 |
| 20260508190650 | 10 | 269 | 16.1 | 32.2 | 0.00 | 0.03 | 0.00 | 85 | 990.1 |
| 20260508185750 | 10 | 271 | 16.1 | 37.0 | 0.00 | 0.03 | 0.00 | 87 | 990.0 |
| 20260508184850 | 10 | 262 | 17.7 | 32.2 | 0.00 | 0.03 | 0.00 | 86 | 989.9 |
| 20260508183950 | 10 | 250 | 17.7 | 41.8 | 0.00 | 0.03 | 0.00 | 87 | 990.0 |
| 20260508183050 | 10 | 273 | 22.5 | 38.6 | 0.00 | 0.03 | 0.00 | 94 | 989.6 |
| 20260508182150 | 10 | 268 | 16.1 | 27.4 | 0.00 | 0.03 | 0.00 | 98 | 989.6 |
| 20260508181250 | 10 | 263 | 9.7 | 30.6 | 0.00 | 0.03 | 0.00 | 99 | 989.6 |
| 20260508180350 | 10 | 252 | 12.9 | 40.2 | 0.00 | 0.03 | 0.00 | 99 | 989.4 |
| 20260508175450 | 10 | 239 | 6.4 | 22.5 | 0.00 | 0.03 | 0.00 | 99 | 989.6 |
| 20260508174550 | 10 | 235 | 6.4 | 22.5 | 0.00 | 0.03 | 0.00 | 99 | 989.2 |
| 20260508173650 | 10 | 270 | 9.7 | 25.7 | 0.00 | 0.03 | 0.00 | 99 | 989.0 |
| 20260508172751 | 10 | 222 | 9.7 | 25.7 | 0.00 | 0.03 | 0.00 | 99 | 988.9 |
| 20260508171850 | 10 | 223 | 12.9 | 24.1 | 0.00 | 0.03 | 0.00 | 98 | 988.7 |
| 20260508170950 | 11 | 246 | 12.9 | 24.1 | 0.00 | 0.03 | 0.00 | 95 | 988.5 |
| 20260508170050 | 11 | 250 | 11.3 | 25.7 | 0.00 | 0.03 | 0.00 | 94 | 988.3 |
| 20260508165150 | 11 | 261 | 14.5 | 24.1 | 0.00 | 0.03 | 0.00 | 93 | 988.2 |
| 20260508164250 | 11 | 251 | 16.1 | 24.1 | 0.00 | 0.03 | 0.00 | 92 | 987.8 |
| 20260508163350 | 11 | 268 | 11.3 | 30.6 | 0.00 | 0.03 | 0.00 | 90 | 987.8 |
| 20260508161550 | 11 | 270 | 12.9 | 24.1 | 0.00 | 0.03 | 0.00 | 91 | 987.4 |
| 20260508160650 | 11 | 267 | 12.9 | 20.9 | 0.00 | 0.03 | 0.00 | 92 | 987.3 |
| 20260508155750 | 11 | 275 | 9.7 | 27.4 | 0.00 | 0.03 | 0.00 | 92 | 986.9 |
| 20260508154850 | 11 | 289 | 12.9 | 20.9 | 0.00 | 0.03 | 0.00 | 93 | 986.9 |
| 20260508153950 | 11 | 252 | 9.7 | 24.1 | 0.00 | 0.03 | 0.00 | 93 | 986.6 |
| 20260508153050 | 11 | 265 | 11.3 | 24.1 | 0.00 | 0.03 | 0.00 | 93 | 986.7 |
| 20260508152150 | 11 | 251 | 9.7 | 24.1 | 0.00 | 0.03 | 0.00 | 93 | 987.0 |
| 20260508151250 | 11 | 269 | 12.9 | 24.1 | 0.00 | 0.03 | 0.00 | 93 | 986.7 |
| 20260508150350 | 11 | 255 | 6.4 | 19.3 | 0.00 | 0.03 | 0.00 | 94 | 986.7 |
| 20260508145450 | 11 | 274 | 9.7 | 20.9 | 0.00 | 0.03 | 0.00 | 94 | 986.4 |
| 20260508144550 | 11 | 281 | 14.5 | 24.1 | 0.00 | 0.03 | 0.00 | 95 | 986.5 |
| 20260508143650 | 11 | 252 | 14.5 | 24.1 | 0.00 | 0.03 | 0.00 | 96 | 986.6 |
| 20260508142750 | 11 | 271 | 9.7 | 22.5 | 0.00 | 0.03 | 0.00 | 97 | 986.5 |
| 20260508141850 | 11 | 258 | 6.4 | 20.9 | 0.00 | 0.03 | 0.00 | 98 | 986.5 |
| 20260508140950 | 11 | 275 | 11.3 | 17.7 | 0.00 | 0.03 | 0.00 | 98 | 986.2 |
| 20260508140050 | 11 | 247 | 6.4 | 20.9 | 0.00 | 0.03 | 0.00 | 98 | 986.4 |
| 20260508135150 | 11 | 260 | 11.3 | 24.1 | 0.00 | 0.03 | 0.00 | 98 | 986.2 |
| 20260508133350 | 11 | 240 | 8.0 | 24.1 | 0.00 | 0.03 | 0.00 | 98 | 986.4 |
| 20260508132450 | 11 | 220 | 8.0 | 22.5 | 0.00 | 0.03 | 0.00 | 98 | 986.5 |
| 20260508131550 | 11 | 259 | 11.3 | 29.0 | 0.00 | 0.03 | 0.00 | 98 | 986.3 |
| 20260508130651 | 11 | 248 | 11.3 | 29.0 | 0.00 | 0.03 | 0.00 | 98 | 986.3 |
| 20260508125750 | 11 | 279 | 14.5 | 27.4 | 0.00 | 0.03 | 0.00 | 98 | 986.3 |